Location: Natural Bridges National Monument
(37.6093°N, 109.9767°W)
Time: 16:59:26
(UTC-06:00)

USA 32 - Visible Passes

Search period start: 27 August 2014 00:00
Search period end: 06 September 2014 00:00
Orbit: 779 x 783 km, 85.0° (Epoch: 24 August)

Date Brightness Start Highest point End Pass type
(mag) Time Alt. Az. Time Alt. Az. Time Alt. Az.
27 Aug 4.6 21:18:44 10° NNW 21:23:52 59° W 21:28:59 10° SSW visible
28 Aug 4.0 20:46:05 10° N 20:51:20 77° E 20:56:33 10° S visible
28 Aug 7.1 22:30:40 10° WNW 22:31:31 10° WNW 22:32:22 10° W visible
29 Aug 4.5 20:13:44 10° N 20:18:42 42° E 20:23:36 10° SSE visible
29 Aug 6.5 21:55:36 10° NW 21:59:17 20° W 22:02:57 10° SW visible
30 Aug 5.6 21:22:13 10° NNW 21:26:56 35° W 21:31:38 10° SSW visible
31 Aug 4.5 20:49:18 10° N 20:54:30 65° W 20:59:39 10° S visible
01 Sep 4.0 20:16:43 10° N 20:21:56 69° E 20:27:08 10° SSE visible
01 Sep 7.1 22:00:24 10° WNW 22:02:11 12° W 22:03:58 10° W visible
02 Sep 6.5 21:26:01 10° NW 21:29:56 22° W 21:33:50 10° SW visible
03 Sep 5.5 20:52:45 10° NNW 20:57:34 39° W 21:02:23 10° SSW visible
04 Sep 4.4 20:19:53 10° N 20:25:07 72° W 20:30:18 10° S visible
05 Sep 7.1 21:30:30 10° NW 21:32:51 13° W 21:35:12 10° WSW visible
